| time (UTC) | temp F | wind direction | speed knots | gust knots | rain 1hr in | rain 24hr in | rain mn in | humidity % | barometer mb |
| 20260504110241 | 48 | 196 | 3.5 | 5.2 | 0.00 | 0.00 | 0.00 | 59 | 1016.5 |
| 20260504081341 | 51 | 232 | 1.7 | 2.6 | 0.00 | 0.00 | 0.00 | 48 | 1016.8 |
| 20260504045841 | 53 | 261 | 3.5 | 6.1 | 0.00 | 0.00 | 0.00 | 46 | 1017.0 |
| 20260504044541 | 53 | 236 | 3.5 | 7.0 | 0.00 | 0.00 | 0.00 | 46 | 1017.0 |
| 20260504043241 | 53 | 251 | 3.5 | 7.0 | 0.00 | 0.00 | 0.00 | 46 | 1016.8 |
| 20260504041941 | 53 | 246 | 3.5 | 6.1 | 0.00 | 0.00 | 0.00 | 46 | 1016.7 |
| 20260504040641 | 53 | 247 | 3.5 | 5.2 | 0.00 | 0.00 | 0.00 | 47 | 1016.5 |
| 20260504035341 | 53 | 258 | 2.6 | 5.2 | 0.00 | 0.00 | 0.00 | 47 | 1016.7 |
| 20260504034041 | 53 | 252 | 2.6 | 7.8 | 0.00 | 0.00 | 0.00 | 47 | 1016.6 |
| 20260504032741 | 53 | 254 | 1.7 | 3.5 | 0.00 | 0.00 | 0.00 | 47 | 1016.4 |
| 20260504031441 | 53 | 261 | 2.6 | 7.0 | 0.00 | 0.00 | 0.00 | 47 | 1016.4 |
| 20260504030141 | 53 | 248 | 1.7 | 4.3 | 0.00 | 0.00 | 0.00 | 47 | 1016.3 |
| 20260504024841 | 53 | 258 | 2.6 | 6.1 | 0.00 | 0.00 | 0.00 | 47 | 1016.4 |
| 20260504023541 | 53 | 251 | 1.7 | 3.5 | 0.00 | 0.00 | 0.00 | 47 | 1016.4 |
| 20260504022241 | 53 | 238 | 2.6 | 6.1 | 0.00 | 0.00 | 0.00 | 47 | 1016.5 |
| 20260504020941 | 53 | 265 | 2.6 | 6.1 | 0.00 | 0.00 | 0.00 | 48 | 1016.5 |
| 20260504015642 | 51 | 257 | 1.7 | 4.3 | 0.00 | 0.00 | 0.00 | 51 | 1016.6 |
| 20260504014341 | 50 | 270 | 0.9 | 2.6 | 0.00 | 0.00 | 0.00 | 56 | 1016.4 |
| 20260504013042 | 51 | 254 | 0.9 | 1.7 | 0.00 | 0.00 | 0.00 | 53 | 1016.2 |
| 20260504011742 | 50 | 246 | 0.9 | 3.5 | 0.00 | 0.00 | 0.00 | 53 | 1016.2 |
| 20260504010442 | 51 | 247 | 0.0 | 0.9 | 0.00 | 0.00 | 0.00 | 56 | 1016.1 |
| 20260504005142 | 51 | 247 | 0.9 | 3.5 | 0.00 | 0.00 | 0.00 | 54 | 1016.2 |
| 20260504003842 | 51 | 236 | 0.0 | 4.3 | 0.00 | 0.00 | 0.00 | 54 | 1016.1 |
| 20260504002542 | 53 | 246 | 0.9 | 2.6 | 0.00 | 0.00 | 0.00 | 53 | 1015.7 |
| 20260504001242 | 54 | 246 | 0.9 | 1.7 | 0.00 | 0.00 | 0.00 | 50 | 1015.6 |
| 20260503235942 | 54 | 234 | 1.7 | 3.5 | 0.00 | 0.00 | 0.00 | 47 | 1015.3 |
| 20260503234642 | 55 | 258 | 1.7 | 2.6 | 0.00 | 0.00 | 0.00 | 46 | 1015.3 |
| 20260503233342 | 56 | 250 | 2.6 | 4.3 | 0.00 | 0.00 | 0.00 | 45 | 1015.1 |
| 20260503232042 | 56 | 271 | 3.5 | 6.1 | 0.00 | 0.00 | 0.00 | 43 | 1015.1 |
| 20260503230742 | 56 | 259 | 3.5 | 7.0 | 0.00 | 0.00 | 0.00 | 41 | 1015.1 |
| 20260503225442 | 56 | 265 | 4.3 | 6.1 | 0.00 | 0.00 | 0.00 | 42 | 1015.1 |
| 20260503224142 | 57 | 266 | 4.3 | 7.0 | 0.00 | 0.00 | 0.00 | 42 | 1015.0 |
| 20260503222842 | 57 | 267 | 3.5 | 6.1 | 0.00 | 0.00 | 0.00 | 42 | 1014.9 |
| 20260503221542 | 57 | 275 | 4.3 | 7.8 | 0.00 | 0.00 | 0.00 | 41 | 1015.0 |
| 20260503220242 | 57 | 270 | 4.3 | 7.8 | 0.00 | 0.00 | 0.00 | 42 | 1015.0 |
| 20260503214942 | 57 | 266 | 4.3 | 7.8 | 0.00 | 0.00 | 0.00 | 41 | 1014.9 |
| 20260503213642 | 57 | 255 | 4.3 | 8.7 | 0.00 | 0.00 | 0.00 | 40 | 1015.1 |
| 20260503212342 | 57 | 275 | 3.5 | 7.0 | 0.00 | 0.00 | 0.00 | 41 | 1015.1 |
| 20260503211042 | 57 | 257 | 4.3 | 8.7 | 0.00 | 0.00 | 0.00 | 41 | 1014.9 |
| 20260503205742 | 57 | 271 | 3.5 | 7.8 | 0.00 | 0.00 | 0.00 | 41 | 1015.0 |
| 20260503204442 | 57 | 259 | 4.3 | 8.7 | 0.00 | 0.00 | 0.00 | 42 | 1015.1 |
| 20260503203142 | 56 | 263 | 3.5 | 7.0 | 0.00 | 0.00 | 0.00 | 42 | 1015.2 |
| 20260503201842 | 56 | 271 | 4.3 | 9.6 | 0.00 | 0.00 | 0.00 | 41 | 1015.4 |
| 20260503200542 | 55 | 269 | 3.5 | 5.2 | 0.00 | 0.00 | 0.00 | 43 | 1015.4 |
| 20260503195242 | 56 | 258 | 5.2 | 7.8 | 0.00 | 0.00 | 0.00 | 42 | 1015.6 |
| 20260503193942 | 56 | 263 | 3.5 | 6.1 | 0.00 | 0.00 | 0.00 | 43 | 1015.6 |
| 20260503192642 | 55 | 248 | 5.2 | 7.8 | 0.00 | 0.00 | 0.00 | 45 | 1015.7 |
| 20260503191342 | 54 | 257 | 2.6 | 7.0 | 0.00 | 0.00 | 0.00 | 42 | 1015.9 |
| 20260503190042 | 55 | 270 | 6.1 | 10.4 | 0.00 | 0.00 | 0.00 | 43 | 1016.0 |
| 20260503184742 | 54 | 255 | 4.3 | 7.0 | 0.00 | 0.00 | 0.00 | 48 | 1016.1 |
| 20260503183442 | 54 | 268 | 2.6 | 11.3 | 0.00 | 0.00 | 0.00 | 44 | 1016.1 |
| 20260503182142 | 55 | 261 | 4.3 | 8.7 | 0.00 | 0.00 | 0.00 | 42 | 1016.1 |
| 20260503180842 | 54 | 253 | 3.5 | 7.8 | 0.00 | 0.00 | 0.00 | 42 | 1016.3 |
| 20260503175542 | 54 | 283 | 4.3 | 8.7 | 0.00 | 0.00 | 0.00 | 47 | 1016.5 |
| 20260503174242 | 53 | 252 | 4.3 | 7.8 | 0.00 | 0.00 | 0.00 | 44 | 1016.3 |
| 20260503172942 | 52 | 277 | 3.5 | 6.1 | 0.00 | 0.00 | 0.00 | 45 | 1016.4 |
| 20260503171642 | 52 | 267 | 5.2 | 8.7 | 0.00 | 0.00 | 0.00 | 44 | 1016.4 |
| 20260503170342 | 51 | 267 | 6.1 | 13.9 | 0.00 | 0.00 | 0.00 | 46 | 1016.7 |
| 20260503150642 | 46 | 10 | 3.5 | 7.0 | 0.00 | 0.00 | 0.00 | 57 | 1017.4 |
| 20260503140143 | 44 | 292 | 2.6 | 6.1 | 0.00 | 0.00 | 0.00 | 64 | 1017.4 |
| 20260503130943 | 43 | 267 | 3.5 | 7.0 | 0.00 | 0.00 | 0.00 | 65 | 1017.3 |